Change the Weather History Date:

Tuesday, November 27, 2012

  Actual Average Record
Temperature  
Mean Temperature 50 °F -  
Max Temperature 57 °F 61 °F 71 °F (2000)
Min Temperature 42 °F 44 °F 35 °F (2005)
Degree Days  
Heating Degree Days 16    
Moisture  
Dew Point 40 °F    
Average Humidity 69    
Maximum Humidity 93    
Minimum Humidity 44    
Precipitation  
Precipitation 0.00 in - - ()
Sea Level Pressure  
Sea Level Pressure 29.89 in    
Wind  
Wind Speed 5 mph ()    
Max Wind Speed 14 mph    
Max Gust Speed -    
Visibility 6.2 miles    
Events      
Averages and records for this station are not official NWS values.
T = Trace of Precipitation, MM = Missing Value Source: Averaged Metar Reports

Daily Weather History Graph

Daily Weather History Graph

Search for Another Location

Airport or City:

Trip Planner

Search our weather history database for the weather conditions in past years. The results will help you decide how hot, cold, wet, or windy it might be!

Date:

Astronomy

Nov. 27, 2012 Rise Set
Actual Time 8:15 AM CET 6:06 PM CET
Civil Twilight 7:47 AM CET 6:35 PM CET
Nautical Twilight 7:14 AM CET 7:07 PM CET
Astronomical Twilight 6:43 AM CET 7:38 PM CET
Moon 5:28 PM CET (11/27) 7:08 AM CET (11/27)
Length of Visible Light 10h 48m
Length of Day
9h 51m
Waxing Gibbous, 99% of the Moon is Illuminated
Nov 27
Waxing Gibbous
Nov 28
Full
Dec 6
Last Quarter
Dec 13
New
Dec 20
First Quarter

Hourly Weather History & Observations

Time (CET) Temp. Windchill Dew Point Humidity Pressure Visibility Wind Dir Wind Speed Gust Speed Precip Events Conditions
12:00 AM 50.0 °F - 46.4 °F 87% 29.95 in - WNW 3.5 mph - N/A   Clear
12:30 AM 50.0 °F - 46.4 °F 87% 29.95 in - WNW 3.5 mph - N/A   Clear
1:00 AM 50.0 °F - 46.4 °F 87% 29.95 in - West 4.6 mph - N/A   Clear
4:30 AM 46.4 °F 45.2 °F 42.8 °F 87% 29.92 in - NW 3.5 mph - N/A   Clear
5:00 AM 44.6 °F - 41.0 °F 87% 29.89 in - NW 1.2 mph - N/A   Clear
5:30 AM 44.6 °F - 41.0 °F 87% 29.89 in - WNW 2.3 mph - N/A   Clear
6:00 AM 44.6 °F 41.4 °F 41.0 °F 87% 29.89 in - West 5.8 mph - N/A   Clear
6:30 AM 46.4 °F 42.4 °F 41.0 °F 81% 29.89 in - WNW 8.1 mph - N/A   Clear
7:00 AM 44.6 °F 40.7 °F 41.0 °F 87% 29.92 in - WNW 6.9 mph - N/A   Clear
7:30 AM 42.8 °F 39.3 °F 41.0 °F 93% 29.92 in - NW 5.8 mph - N/A   Clear
8:00 AM 44.6 °F - 41.0 °F 87% 29.92 in - West 2.3 mph - N/A   Clear
8:30 AM 44.6 °F 43.1 °F 41.0 °F 87% 29.92 in - WNW 3.5 mph - N/A   Clear
9:00 AM 44.6 °F 40.7 °F 41.0 °F 87% 29.92 in - West 6.9 mph - N/A   Clear
9:30 AM 46.4 °F 44.3 °F 41.0 °F 81% 29.92 in - West 4.6 mph - N/A   Clear
10:00 AM 48.2 °F - 41.0 °F 76% 29.92 in - WNW 6.9 mph - N/A   Clear
10:30 AM 50.0 °F - 39.2 °F 66% 29.92 in - West 5.8 mph - N/A   Clear
11:00 AM 50.0 °F - 39.2 °F 66% 29.95 in - West 4.6 mph - N/A   Clear
11:30 AM 51.8 °F - 39.2 °F 62% 29.95 in - WNW 5.8 mph - N/A   Clear
12:00 PM 51.8 °F - 39.2 °F 62% 29.92 in - West 6.9 mph - N/A   Clear
12:30 PM 53.6 °F - 41.0 °F 62% 29.92 in - West 8.1 mph - N/A   Clear
1:00 PM 53.6 °F - 41.0 °F 62% 29.92 in - West 10.4 mph - N/A   Clear
1:30 PM 55.4 °F - 42.8 °F 63% 29.89 in - West 9.2 mph - N/A   Clear
2:00 PM 55.4 °F - 41.0 °F 58% 29.89 in - WSW 5.8 mph - N/A   Clear
2:30 PM 57.2 °F - 39.2 °F 51% 29.86 in 6.2 mi West 9.2 mph - N/A   Partly Cloudy
3:00 PM 57.2 °F - 37.4 °F 48% 29.86 in 6.2 mi West 13.8 mph - N/A   Partly Cloudy
3:30 PM 57.2 °F - 35.6 °F 44% 29.86 in 6.2 mi WNW 13.8 mph - N/A   Partly Cloudy
4:00 PM 57.2 °F - 37.4 °F 48% 29.83 in 6.2 mi WNW 11.5 mph - N/A   Partly Cloudy
4:30 PM 57.2 °F - 37.4 °F 48% 29.86 in 6.2 mi NW 9.2 mph - N/A   Partly Cloudy
5:00 PM 57.2 °F - 35.6 °F 44% 29.83 in 6.2 mi NW 12.7 mph - N/A   Partly Cloudy
5:30 PM 55.4 °F - 35.6 °F 47% 29.83 in 6.2 mi NW 12.7 mph - N/A   Partly Cloudy
6:00 PM 53.6 °F - 37.4 °F 54% 29.83 in 6.2 mi WNW 9.2 mph - N/A   Partly Cloudy
6:30 PM 53.6 °F - 37.4 °F 54% 29.86 in 6.2 mi NW 6.9 mph - N/A   Partly Cloudy
7:00 PM 51.8 °F - 37.4 °F 58% 29.86 in - WNW 8.1 mph - N/A   Clear
7:30 PM 50.0 °F - 37.4 °F 62% 29.86 in - WNW 6.9 mph - N/A   Clear
8:00 PM 50.0 °F - 37.4 °F 62% 29.86 in - WNW 6.9 mph - N/A   Clear
8:30 PM 48.2 °F - 39.2 °F 71% 29.86 in - Variable 2.3 mph - N/A   Clear
9:00 PM 46.4 °F 42.4 °F 39.2 °F 76% 29.89 in - West 8.1 mph - N/A   Clear
9:30 PM 48.2 °F - 39.2 °F 71% 29.89 in - West 8.1 mph - N/A   Clear
10:00 PM 48.2 °F - 39.2 °F 71% 29.89 in - West 6.9 mph - N/A   Clear
11:00 PM 48.2 °F - 39.2 °F 71% 29.89 in - West 5.8 mph - N/A   Clear
11:30 PM 48.2 °F - 39.2 °F 71% 29.89 in - West 6.9 mph - N/A   Clear